Keahole Point, HI

6:32 PM HST on November 19, 2017 (GMT -1000)
Kona International At Keahole

Weather History for PHKO - March, 2013

Change the Weather History Date:

Wednesday, March 27, 2013

  Actual Average Record
Temperature  
Mean Temperature 77 °F -  
Max Temperature 82 °F 79 °F 91 °F (1983)
Min Temperature 72 °F 68 °F 66 °F (1987)
Cooling Degree Days 12    
Growing Degree Days 27 (Base 50)    
Moisture  
Dew Point 65 °F    
Average Humidity 67    
Maximum Humidity 76    
Minimum Humidity 50    
Precipitation  
Precipitation 0.00 in - - ()
Sea Level Pressure  
Sea Level Pressure 29.97 in    
Wind  
Wind Speed 7 mph (SSW)    
Max Wind Speed 15 mph    
Max Gust Speed -    
Visibility 10 miles    
Events      
Averages and records for this station are not official NWS values.
T = Trace of Precipitation, MM = Missing Value Source: NWS Daily Summary

Daily Weather History Graph

Daily Weather History Graph

Search for Another Location

Airport or City:

Trip Planner

Search our weather history database for the weather conditions in past years. The results will help you decide how hot, cold, wet, or windy it might be!

Date:

Astronomy

Mar. 27, 2013 Rise Set
Actual Time 6:21 AM HST 6:37 PM HST
Civil Twilight 5:59 AM HST 6:59 PM HST
Nautical Twilight 5:34 AM HST 7:24 PM HST
Astronomical Twilight 5:08 AM HST 7:50 PM HST
Moon 7:20 PM HST (3/27) 6:27 AM HST (3/27)
Length of Visible Light 12h 59m
Length of Day
12h 15m
Full, 100% of the Moon is Illuminated
Mar 27
Full
Apr 2
Last Quarter
Apr 9
New
Apr 18
First Quarter
Apr 25
Full

Hourly Weather History & Observations

Time (HST) Temp. Heat Index Dew Point Humidity Pressure Visibility Wind Dir Wind Speed Gust Speed Precip Events Conditions
12:53 AM 73.9 °F - 62.1 °F 66% 29.98 in 10.0 mi ESE 6.9 mph - N/A   Partly Cloudy
1:53 AM 73.0 °F - 61.0 °F 66% 29.95 in 10.0 mi ESE 4.6 mph - N/A   Clear
2:53 AM 73.9 °F - 64.0 °F 71% 29.94 in 10.0 mi SE 6.9 mph - N/A   Clear
3:53 AM 72.0 °F - 61.0 °F 68% 29.92 in 10.0 mi East 3.5 mph - N/A   Clear
4:53 AM 72.0 °F - 62.1 °F 71% 29.94 in 10.0 mi ESE 5.8 mph - N/A   Clear
5:53 AM 73.0 °F - 63.0 °F 71% 29.95 in 10.0 mi East 3.5 mph - N/A   Clear
6:53 AM 72.0 °F - 62.1 °F 71% 29.96 in 10.0 mi East 4.6 mph - N/A   Clear
7:53 AM 77.0 °F - 64.9 °F 66% 29.97 in 10.0 mi Calm Calm - N/A   Clear
8:53 AM 78.1 °F - 62.1 °F 58% 29.99 in 10.0 mi WNW 5.8 mph - N/A   Clear
9:53 AM 80.1 °F 81.2 °F 62.1 °F 54% 29.99 in 10.0 mi NW 8.1 mph - N/A   Partly Cloudy
10:53 AM 78.1 °F - 63.0 °F 60% 29.99 in 10.0 mi WSW 10.4 mph - N/A   Clear
11:53 AM 80.1 °F 80.9 °F 60.1 °F 50% 29.98 in 10.0 mi WSW 10.4 mph - N/A   Clear
12:53 PM 82.0 °F 84.5 °F 66.9 °F 60% 29.97 in 10.0 mi SW 11.5 mph - N/A   Clear
1:53 PM 82.0 °F 84.9 °F 68.0 °F 62% 29.94 in 10.0 mi WSW 15.0 mph - N/A   Clear
2:53 PM 81.0 °F 83.8 °F 68.0 °F 65% 29.92 in 10.0 mi SW 13.8 mph - N/A   Partly Cloudy
3:53 PM 80.1 °F 82.3 °F 66.9 °F 64% 29.92 in 10.0 mi SW 13.8 mph - N/A   Partly Cloudy
4:53 PM 79.0 °F - 66.9 °F 66% 29.92 in 10.0 mi SW 13.8 mph - N/A   Scattered Clouds
5:53 PM 77.0 °F - 66.9 °F 71% 29.93 in 10.0 mi SW 12.7 mph - N/A   Clear
6:53 PM 77.0 °F - 66.9 °F 71% 29.96 in 10.0 mi SW 11.5 mph - N/A   Mostly Cloudy
7:53 PM 75.9 °F - 66.9 °F 74% 29.98 in 10.0 mi South 5.8 mph - N/A   Mostly Cloudy
8:27 PM 75.2 °F - 66.2 °F 73% 29.98 in 10.0 mi SSW 4.6 mph - 0.00 in   Mostly Cloudy
8:53 PM 75.0 °F - 66.9 °F 76% 29.99 in 10.0 mi South 3.5 mph - 0.00 in   Mostly Cloudy
9:04 PM 75.2 °F - 66.2 °F 73% 29.99 in 10.0 mi South 5.8 mph - N/A   Scattered Clouds
9:53 PM 75.9 °F - 66.0 °F 71% 30.01 in 10.0 mi Calm Calm - N/A   Mostly Cloudy
10:03 PM 75.2 °F - 66.2 °F 73% 30.01 in 10.0 mi Calm Calm - N/A   Mostly Cloudy
10:10 PM 75.2 °F - 66.2 °F 73% 30.01 in 10.0 mi Calm Calm - N/A   Scattered Clouds
10:53 PM 73.0 °F - 59.0 °F 61% 30.01 in 10.0 mi NNW 4.6 mph - N/A   Clear
11:53 PM 75.0 °F - 64.9 °F 71% 30.00 in 10.0 mi SE 10.4 mph - N/A   Clear